User: anonymous   Login
Location: Columbia
(38.9520°N, 92.3340°W)
Time: 07:32:50
(UTC-05:00)
Language:

Cosmos 1603 - Orbit

View from above orbital plane
View from above orbital plane
View from above satellite
View from above satellite

Ground track
Ground track

The orbit data is extracted from the following two-line orbital elements,

1 15333U 84106A   17144.50973815 -.00000027 +00000-0 +10510-4 0  9990
2 15333 071.0256 141.9546 0021792 246.2362 113.6475 14.14060388684914
Epoch (UTC): 24 May 2017 12:14:01
Eccentricity: 0.0021792
inclination: 71.0256°
perigee height: 830 km
apogee height: 861 km
right ascension of ascending node: 141.9546°
argument of perigee: 246.2362°
revolutions per day: 14.14060388
mean anomaly at epoch: 113.6475°
orbit number at epoch: 68491

The dashed part of the orbit path shows where the satellite is in the earth's shadow,  

DLR